Time,TemperatureF,DewpointF,PressureIn,WindDirection,WindDirectionDegrees,WindSpeedMPH,WindSpeedGustMPH,Humidity,HourlyPrecipIn,Conditions,Clouds,dailyrainin,SoftwareType,DateUTC
2013-02-13 00:09:00,50.0,48.0,30.01,NW,314,0.0,0.0,93,0.04,,,0.05,weatherlink.com 1.10,2013-02-13 05:09:00,
2013-02-13 00:24:00,50.0,48.0,30.00,NW,314,0.0,0.0,94,0.04,,,0.06,weatherlink.com 1.10,2013-02-13 05:24:00,
2013-02-13 00:39:00,50.1,49.0,29.99,SSE,165,3.0,3.0,94,0.05,,,0.08,weatherlink.com 1.10,2013-02-13 05:39:00,
2013-02-13 00:54:00,50.7,49.0,29.98,SSW,201,1.0,4.0,95,0.05,,,0.09,weatherlink.com 1.10,2013-02-13 05:54:00,
2013-02-13 01:09:00,50.9,49.0,29.99,SSW,210,2.0,3.0,94,0.06,,,0.11,weatherlink.com 1.10,2013-02-13 06:09:00,
2013-02-13 01:24:00,50.8,49.0,29.99,WSW,238,0.0,1.0,94,0.07,,,0.13,weatherlink.com 1.10,2013-02-13 06:24:00,
2013-02-13 01:39:00,50.4,49.0,29.97,WNW,283,0.0,1.0,94,0.06,,,0.14,weatherlink.com 1.10,2013-02-13 06:39:00,
2013-02-13 01:54:00,50.0,49.0,29.95,WNW,299,0.0,1.0,95,0.06,,,0.15,weatherlink.com 1.10,2013-02-13 06:54:00,
2013-02-13 02:09:00,49.8,49.0,29.94,North,4,0.0,1.0,95,0.04,,,0.15,weatherlink.com 1.10,2013-02-13 07:09:00,
2013-02-13 02:24:00,49.8,49.0,29.95,NW,307,0.0,1.0,95,0.04,,,0.01,weatherlink.com 1.10,2013-02-13 07:24:00,
2013-02-13 02:39:00,49.3,48.0,29.91,East,83,1.0,1.0,95,0.05,,,0.03,weatherlink.com 1.10,2013-02-13 07:39:00,
2013-02-13 02:54:00,48.9,48.0,29.88,ENE,69,4.0,5.0,95,0.04,,,0.03,weatherlink.com 1.10,2013-02-13 07:54:00,
2013-02-13 03:09:00,49.5,47.0,29.88,ENE,75,9.0,10.0,92,0.04,,,0.03,weatherlink.com 1.10,2013-02-13 08:09:00,
2013-02-13 03:24:00,49.5,47.0,29.88,East,96,5.0,9.0,90,0.04,,,0.05,weatherlink.com 1.10,2013-02-13 08:24:00,
2013-02-13 03:39:00,48.8,46.0,29.89,ESE,105,0.0,4.0,91,0.04,,,0.07,weatherlink.com 1.10,2013-02-13 08:39:00,
2013-02-13 03:54:00,48.7,46.0,29.86,ESE,115,5.0,9.0,91,0.05,,,0.08,weatherlink.com 1.10,2013-02-13 08:54:00,
2013-02-13 04:10:00,48.8,47.0,29.84,ESE,103,12.0,12.0,92,0.09,,,0.12,weatherlink.com 1.10,2013-02-13 09:10:00,
2013-02-13 04:24:00,48.5,47.0,29.84,NE,39,2.0,10.0,93,0.11,,,0.16,weatherlink.com 1.10,2013-02-13 09:24:00,
2013-02-13 04:39:00,48.0,46.0,29.86,WNW,290,0.0,3.0,94,0.10,,,0.17,weatherlink.com 1.10,2013-02-13 09:39:00,
2013-02-13 04:54:00,47.5,46.0,29.86,North,356,1.0,2.0,94,0.18,,,0.26,weatherlink.com 1.10,2013-02-13 09:54:00,
2013-02-13 05:09:00,47.5,46.0,29.84,NNE,21,0.0,1.0,95,0.17,,,0.29,weatherlink.com 1.10,2013-02-13 10:09:00,
2013-02-13 05:24:00,47.4,46.0,29.84,East,83,0.0,2.0,95,0.15,,,0.31,weatherlink.com 1.10,2013-02-13 10:24:00,
2013-02-13 05:39:00,47.7,47.0,29.84,East,84,2.0,6.0,96,0.14,,,0.31,weatherlink.com 1.10,2013-02-13 10:39:00,
2013-02-13 05:54:00,47.9,47.0,29.83,ESE,103,9.0,10.0,96,0.04,,,0.31,weatherlink.com 1.10,2013-02-13 10:54:00,
2013-02-13 06:09:00,48.1,47.0,29.84,ENE,65,5.0,8.0,96,0.02,,,0.31,weatherlink.com 1.10,2013-02-13 11:09:00,
2013-02-13 06:25:00,47.8,47.0,29.84,East,85,0.0,5.0,96,0.01,,,0.32,weatherlink.com 1.10,2013-02-13 11:25:00,
2013-02-13 06:39:00,47.9,47.0,29.84,North,1,0.0,3.0,96,0.01,,,0.32,weatherlink.com 1.10,2013-02-13 11:39:00,
2013-02-13 06:55:00,48.0,47.0,29.83,NNE,30,2.0,6.0,96,0.02,,,0.33,weatherlink.com 1.10,2013-02-13 11:55:00,
2013-02-13 07:10:00,48.0,47.0,29.83,North,352,0.0,1.0,96,0.02,,,0.33,weatherlink.com 1.10,2013-02-13 12:10:00,
2013-02-13 07:24:00,47.9,47.0,29.83,NNW,344,0.0,1.0,96,0.01,,,0.33,weatherlink.com 1.10,2013-02-13 12:24:00,
2013-02-13 07:40:00,48.0,47.0,29.82,North,6,0.0,1.0,97,0.03,,,0.35,weatherlink.com 1.10,2013-02-13 12:40:00,
2013-02-13 07:55:00,48.0,47.0,29.82,NW,322,1.0,1.0,97,0.03,,,0.36,weatherlink.com 1.10,2013-02-13 12:55:00,
2013-02-13 08:10:00,48.1,47.0,29.81,North,3,0.0,2.0,97,0.03,,,0.36,weatherlink.com 1.10,2013-02-13 13:10:00,
2013-02-13 08:25:00,48.0,47.0,29.81,NNW,347,0.0,1.0,97,0.03,,,0.36,weatherlink.com 1.10,2013-02-13 13:25:00,
2013-02-13 08:40:00,48.0,47.0,29.80,NNW,327,1.0,4.0,97,0.03,,,0.38,weatherlink.com 1.10,2013-02-13 13:40:00,
2013-02-13 08:55:00,48.0,47.0,29.79,WNW,289,1.0,3.0,97,0.02,,,0.38,weatherlink.com 1.10,2013-02-13 13:55:00,
2013-02-13 09:10:00,48.2,47.0,29.79,NW,308,1.0,3.0,97,0.03,,,0.39,weatherlink.com 1.10,2013-02-13 14:10:00,
2013-02-13 09:25:00,48.4,48.0,29.81,WNW,292,1.0,5.0,97,0.03,,,0.39,weatherlink.com 1.10,2013-02-13 14:25:00,
2013-02-13 09:40:00,48.4,48.0,29.79,North,9,3.0,4.0,97,0.02,,,0.40,weatherlink.com 1.10,2013-02-13 14:40:00,
2013-02-13 09:55:00,48.7,48.0,29.79,ENE,59,1.0,3.0,97,0.02,,,0.40,weatherlink.com 1.10,2013-02-13 14:55:00,
2013-02-13 10:10:00,48.9,48.0,29.77,NW,311,1.0,3.0,97,0.01,,,0.40,weatherlink.com 1.10,2013-02-13 15:10:00,
2013-02-13 10:25:00,48.9,48.0,29.78,WSW,257,1.0,4.0,97,0.01,,,0.40,weatherlink.com 1.10,2013-02-13 15:25:00,
2013-02-13 10:40:00,49.0,48.0,29.78,NNW,330,0.0,3.0,97,0.00,,,0.40,weatherlink.com 1.10,2013-02-13 15:40:00,
2013-02-13 10:55:00,49.2,48.0,29.77,WNW,299,0.0,2.0,97,0.00,,,0.40,weatherlink.com 1.10,2013-02-13 15:55:00,
2013-02-13 11:10:00,49.5,49.0,29.77,West,266,2.0,3.0,98,0.00,,,0.40,weatherlink.com 1.10,2013-02-13 16:10:00,
2013-02-13 11:25:00,49.7,49.0,29.76,East,87,0.0,4.0,98,0.00,,,0.40,weatherlink.com 1.10,2013-02-13 16:25:00,
2013-02-13 11:40:00,50.0,50.0,29.74,East,82,0.0,6.0,98,0.00,,,0.40,weatherlink.com 1.10,2013-02-13 16:40:00,
2013-02-13 11:55:00,50.2,49.0,29.75,East,79,2.0,3.0,97,0.00,,,0.40,weatherlink.com 1.10,2013-02-13 16:55:00,
2013-02-13 12:10:00,49.9,49.0,29.73,East,101,2.0,4.0,97,0.00,,,0.40,weatherlink.com 1.10,2013-02-13 17:10:00,
2013-02-13 12:25:00,50.1,50.0,29.72,ESE,114,1.0,3.0,98,0.00,,,0.40,weatherlink.com 1.10,2013-02-13 17:25:00,
2013-02-13 12:40:00,50.1,49.0,29.73,East,96,1.0,2.0,97,0.00,,,0.40,weatherlink.com 1.10,2013-02-13 17:40:00,
2013-02-13 12:55:00,50.3,50.0,29.74,East,101,0.0,2.0,97,0.00,,,0.40,weatherlink.com 1.10,2013-02-13 17:55:00,
2013-02-13 13:10:00,50.3,50.0,29.68,ESE,110,6.0,8.0,97,0.00,,,0.40,weatherlink.com 1.10,2013-02-13 18:10:00,
2013-02-13 13:25:00,50.6,50.0,29.71,East,86,3.0,3.0,97,0.00,,,0.40,weatherlink.com 1.10,2013-02-13 18:25:00,
2013-02-13 13:40:00,50.5,50.0,29.69,ESE,109,4.0,4.0,97,0.00,,,0.40,weatherlink.com 1.10,2013-02-13 18:40:00,
2013-02-13 13:55:00,50.7,50.0,29.70,NNE,27,0.0,5.0,98,0.00,,,0.40,weatherlink.com 1.10,2013-02-13 18:55:00,
2013-02-13 14:10:00,51.1,50.0,29.69,ESE,110,3.0,3.0,97,0.00,,,0.40,weatherlink.com 1.10,2013-02-13 19:10:00,
2013-02-13 14:25:00,50.9,50.0,29.68,ESE,119,2.0,4.0,97,0.00,,,0.40,weatherlink.com 1.10,2013-02-13 19:25:00,
2013-02-13 14:40:00,50.8,50.0,29.66,ESE,103,5.0,6.0,97,0.00,,,0.40,weatherlink.com 1.10,2013-02-13 19:40:00,
2013-02-13 14:55:00,50.8,50.0,29.67,ESE,115,3.0,4.0,98,0.00,,,0.40,weatherlink.com 1.10,2013-02-13 19:55:00,
2013-02-13 15:10:00,50.9,50.0,29.68,NW,304,2.0,4.0,98,0.00,,,0.40,weatherlink.com 1.10,2013-02-13 20:10:00,
2013-02-13 15:25:00,51.0,50.0,29.66,ESE,108,4.0,4.0,97,0.00,,,0.40,weatherlink.com 1.10,2013-02-13 20:25:00,
2013-02-13 15:40:00,51.3,51.0,29.67,SSE,155,5.0,8.0,98,0.00,,,0.40,weatherlink.com 1.10,2013-02-13 20:40:00,
2013-02-13 15:55:00,51.8,51.0,29.68,NW,307,0.0,4.0,98,0.00,,,0.40,weatherlink.com 1.10,2013-02-13 20:55:00,
2013-02-13 16:10:00,52.3,52.0,29.65,SSE,148,6.0,6.0,98,0.00,,,0.40,weatherlink.com 1.10,2013-02-13 21:10:00,
2013-02-13 16:26:00,52.8,53.0,29.68,West,259,0.0,3.0,99,0.00,,,0.40,weatherlink.com 1.10,2013-02-13 21:26:00,
2013-02-13 16:41:00,53.6,53.0,29.64,South,183,9.0,10.0,99,0.00,,,0.40,weatherlink.com 1.10,2013-02-13 21:41:00,
2013-02-13 16:55:00,53.9,53.0,29.65,SSW,203,6.0,9.0,98,0.00,,,0.40,weatherlink.com 1.10,2013-02-13 21:55:00,
2013-02-13 17:10:00,54.0,54.0,29.65,WSW,238,5.0,5.0,98,0.00,,,0.40,weatherlink.com 1.10,2013-02-13 22:10:00,
2013-02-13 17:26:00,54.9,54.0,29.67,West,269,2.0,5.0,98,0.00,,,0.40,weatherlink.com 1.10,2013-02-13 22:26:00,
2013-02-13 17:40:00,55.0,55.0,29.66,SW,228,8.0,9.0,98,0.00,,,0.40,weatherlink.com 1.10,2013-02-13 22:40:00,
2013-02-13 17:56:00,55.0,55.0,29.67,SSW,207,7.0,9.0,98,0.00,,,0.40,weatherlink.com 1.10,2013-02-13 22:56:00,
2013-02-13 18:11:00,55.3,55.0,29.68,SW,235,5.0,8.0,98,0.00,,,0.40,weatherlink.com 1.10,2013-02-13 23:11:00,
2013-02-13 18:26:00,55.1,54.0,29.67,SSW,210,9.0,11.0,97,0.00,,,0.40,weatherlink.com 1.10,2013-02-13 23:26:00,
2013-02-13 18:41:00,55.0,54.0,29.68,SW,235,4.0,10.0,97,0.00,,,0.40,weatherlink.com 1.10,2013-02-13 23:41:00,
2013-02-13 18:56:00,55.3,55.0,29.68,WSW,251,2.0,8.0,97,0.00,,,0.40,weatherlink.com 1.10,2013-02-13 23:56:00,
2013-02-13 19:11:00,55.6,55.0,29.67,West,263,2.0,9.0,97,0.00,,,0.40,weatherlink.com 1.10,2013-02-14 00:11:00,
2013-02-13 19:26:00,55.7,55.0,29.69,SSW,207,4.0,9.0,96,0.00,,,0.40,weatherlink.com 1.10,2013-02-14 00:26:00,
2013-02-13 19:56:00,54.9,53.0,29.70,WNW,293,3.0,7.0,94,0.04,,,0.44,weatherlink.com 1.10,2013-02-14 00:56:00,
2013-02-13 20:11:00,54.5,53.0,29.70,West,278,2.0,6.0,95,0.05,,,0.45,weatherlink.com 1.10,2013-02-14 01:11:00,
2013-02-13 20:26:00,54.1,53.0,29.70,West,273,4.0,7.0,94,0.06,,,0.46,weatherlink.com 1.10,2013-02-14 01:26:00,
2013-02-13 20:41:00,53.8,52.0,29.70,NW,312,1.0,4.0,94,0.03,,,0.46,weatherlink.com 1.10,2013-02-14 01:41:00,
2013-02-13 20:56:00,53.6,52.0,29.73,West,268,2.0,5.0,94,0.02,,,0.46,weatherlink.com 1.10,2013-02-14 01:56:00,
2013-02-13 21:11:00,53.1,51.0,29.71,West,279,2.0,9.0,93,0.01,,,0.46,weatherlink.com 1.10,2013-02-14 02:11:00,
2013-02-13 21:26:00,52.8,51.0,29.73,West,279,3.0,6.0,92,0.00,,,0.46,weatherlink.com 1.10,2013-02-14 02:26:00,
2013-02-13 21:41:00,52.6,50.0,29.74,SW,215,1.0,6.0,92,0.00,,,0.46,weatherlink.com 1.10,2013-02-14 02:41:00,
2013-02-13 21:56:00,52.6,50.0,29.75,WNW,283,1.0,9.0,91,0.00,,,0.46,weatherlink.com 1.10,2013-02-14 02:56:00,
2013-02-13 22:11:00,52.5,50.0,29.76,West,281,4.0,5.0,90,0.00,,,0.46,weatherlink.com 1.10,2013-02-14 03:11:00,
2013-02-13 22:26:00,52.3,49.0,29.76,SW,218,1.0,6.0,88,0.00,,,0.46,weatherlink.com 1.10,2013-02-14 03:26:00,
2013-02-13 22:41:00,52.2,49.0,29.75,West,278,2.0,7.0,88,0.00,,,0.46,weatherlink.com 1.10,2013-02-14 03:41:00,
2013-02-13 22:56:00,51.9,49.0,29.77,NW,316,1.0,4.0,88,0.00,,,0.46,weatherlink.com 1.10,2013-02-14 03:56:00,
2013-02-13 23:11:00,51.9,49.0,29.78,WSW,246,1.0,6.0,88,0.00,,,0.46,weatherlink.com 1.10,2013-02-14 04:11:00,
2013-02-13 23:41:00,51.3,48.0,29.78,West,278,1.0,7.0,88,0.00,,,0.46,weatherlink.com 1.10,2013-02-14 04:41:00,
2013-02-13 23:55:00,50.8,48.0,29.79,West,273,2.0,4.0,89,0.00,,,0.46,weatherlink.com 1.10,2013-02-14 04:55:00,